| time (UTC) | temp F | wind direction | speed MPH | gust MPH | rain 1hr in | rain 24hr in | rain mn in | humidity % | barometer mb |
| 20260503211241 | 72 | 333 | 4.0 | 8.0 | 0.00 | 0.00 | 0.00 | 20 | 1004.2 |
| 20260503210741 | 72 | 311 | 4.0 | 14.0 | 0.00 | 0.00 | 0.00 | 23 | 1004.2 |
| 20260503210239 | 72 | 331 | 3.0 | 14.0 | 0.00 | 0.00 | 0.00 | 21 | 1004.3 |
| 20260503205738 | 73 | 303 | 3.0 | 6.0 | 0.00 | 0.00 | 0.00 | 27 | 1004.3 |
| 20260503205233 | 72 | 223 | 3.0 | 6.0 | 0.00 | 0.00 | 0.00 | 26 | 1004.2 |
| 20260503205202 | 73 | 323 | 3.0 | 9.0 | 0.00 | 0.00 | 0.00 | 25 | 1004.3 |
| 20260503204826 | 73 | 295 | 3.0 | 8.0 | 0.00 | 0.00 | 0.00 | 25 | 1004.3 |
| 20260503203726 | 72 | 269 | 3.0 | 9.0 | 0.00 | 0.00 | 0.00 | 25 | 1004.3 |
| 20260503203227 | 71 | 325 | 3.0 | 8.0 | 0.00 | 0.00 | 0.00 | 24 | 1004.5 |
| 20260503202726 | 71 | 309 | 4.0 | 10.0 | 0.00 | 0.00 | 0.00 | 24 | 1004.4 |
| 20260503202226 | 72 | 287 | 4.0 | 10.0 | 0.00 | 0.00 | 0.00 | 24 | 1004.6 |
| 20260503201726 | 71 | 300 | 5.0 | 10.0 | 0.00 | 0.00 | 0.00 | 24 | 1004.6 |
| 20260503201452 | 71 | 336 | 4.0 | 10.0 | 0.00 | 0.00 | 0.00 | 23 | 1004.7 |
| 20260503200724 | 72 | 300 | 4.0 | 10.0 | 0.00 | 0.00 | 0.00 | 23 | 1004.6 |
| 20260503200224 | 72 | 341 | 4.0 | 10.0 | 0.00 | 0.00 | 0.00 | 23 | 1004.7 |
| 20260503195946 | 72 | 344 | 4.0 | 10.0 | 0.00 | 0.00 | 0.00 | 23 | 1004.7 |
| 20260503195225 | 71 | 355 | 3.0 | 10.0 | 0.00 | 0.00 | 0.00 | 24 | 1004.8 |
| 20260503194722 | 72 | 309 | 4.0 | 10.0 | 0.00 | 0.00 | 0.00 | 26 | 1004.9 |
| 20260503194222 | 72 | 330 | 5.0 | 12.0 | 0.00 | 0.00 | 0.00 | 24 | 1005.0 |
| 20260503193724 | 72 | 304 | 4.0 | 12.0 | 0.00 | 0.00 | 0.00 | 24 | 1005.0 |
| 20260503193217 | 72 | 299 | 4.0 | 10.0 | 0.00 | 0.00 | 0.00 | 25 | 1005.0 |
| 20260503192710 | 72 | 355 | 4.0 | 10.0 | 0.00 | 0.00 | 0.00 | 26 | 1005.0 |
| 20260503192210 | 71 | 348 | 4.0 | 10.0 | 0.00 | 0.00 | 0.00 | 26 | 1005.0 |
| 20260503191710 | 71 | 17 | 5.0 | 12.0 | 0.00 | 0.00 | 0.00 | 25 | 1005.1 |
| 20260503191210 | 71 | 313 | 4.0 | 12.0 | 0.00 | 0.00 | 0.00 | 24 | 1005.1 |
| 20260503190711 | 71 | 301 | 4.0 | 10.0 | 0.00 | 0.00 | 0.00 | 25 | 1005.0 |
| 20260503190212 | 71 | 342 | 4.0 | 17.0 | 0.00 | 0.00 | 0.00 | 25 | 1005.0 |
| 20260503185933 | 71 | 309 | 4.0 | 17.0 | 0.00 | 0.00 | 0.00 | 25 | 1004.9 |
| 20260503185210 | 71 | 0 | 4.0 | 11.0 | 0.00 | 0.00 | 0.00 | 29 | 1005.1 |
| 20260503184712 | 71 | 320 | 5.0 | 11.0 | 0.00 | 0.00 | 0.00 | 29 | 1005.1 |
| 20260503184217 | 71 | 330 | 4.0 | 10.0 | 0.00 | 0.00 | 0.00 | 28 | 1005.1 |
| 20260503183711 | 70 | 334 | 4.0 | 10.0 | 0.00 | 0.00 | 0.00 | 29 | 1005.1 |
| 20260503183211 | 70 | 336 | 5.0 | 10.0 | 0.00 | 0.00 | 0.00 | 30 | 1005.2 |
| 20260503182929 | 71 | 317 | 5.0 | 10.0 | 0.00 | 0.00 | 0.00 | 32 | 1005.2 |
| 20260503182200 | 71 | 309 | 5.0 | 10.0 | 0.00 | 0.00 | 0.00 | 32 | 1005.3 |
| 20260503181701 | 70 | 257 | 4.0 | 9.0 | 0.00 | 0.00 | 0.00 | 34 | 1005.2 |
| 20260503181432 | 71 | 290 | 4.0 | 12.0 | 0.00 | 0.00 | 0.00 | 32 | 1005.2 |
| 20260503180701 | 70 | 331 | 4.0 | 12.0 | 0.00 | 0.00 | 0.00 | 31 | 1005.3 |
| 20260503180421 | 70 | 355 | 4.0 | 10.0 | 0.00 | 0.00 | 0.00 | 35 | 1005.3 |
| 20260503175701 | 70 | 329 | 4.0 | 10.0 | 0.00 | 0.00 | 0.00 | 34 | 1005.3 |
| 20260503175428 | 70 | 338 | 4.0 | 12.0 | 0.00 | 0.00 | 0.00 | 34 | 1005.4 |
| 20260503174700 | 69 | 323 | 5.0 | 12.0 | 0.00 | 0.00 | 0.00 | 34 | 1005.4 |
| 20260503174200 | 70 | 337 | 4.0 | 11.0 | 0.00 | 0.00 | 0.00 | 34 | 1005.5 |
| 20260503173701 | 70 | 327 | 4.0 | 11.0 | 0.00 | 0.00 | 0.00 | 36 | 1005.4 |
| 20260503173408 | 69 | 338 | 4.0 | 13.0 | 0.00 | 0.00 | 0.00 | 36 | 1005.5 |
| 20260503173255 | 69 | 315 | 5.0 | 13.0 | 0.00 | 0.00 | 0.00 | 34 | 1005.4 |
| 20260503172158 | 70 | 312 | 4.0 | 13.0 | 0.00 | 0.00 | 0.00 | 37 | 1005.5 |
| 20260503171658 | 69 | 306 | 4.0 | 12.0 | 0.00 | 0.00 | 0.00 | 40 | 1005.4 |
| 20260503171159 | 69 | 317 | 4.0 | 12.0 | 0.00 | 0.00 | 0.00 | 36 | 1005.5 |
| 20260503170918 | 69 | 309 | 5.0 | 11.0 | 0.00 | 0.00 | 0.00 | 39 | 1005.6 |
| 20260503170159 | 69 | 331 | 5.0 | 11.0 | 0.00 | 0.00 | 0.00 | 37 | 1005.7 |
| 20260503150655 | 64 | 323 | 5.0 | 14.0 | 0.00 | 0.00 | 0.00 | 43 | 1005.3 |
| 20260503150152 | 63 | 315 | 5.0 | 14.0 | 0.00 | 0.00 | 0.00 | 43 | 1005.3 |
| 20260503140150 | 60 | 5 | 4.0 | 6.0 | 0.00 | 0.00 | 0.00 | 48 | 1005.0 |
| 20260503131406 | 55 | 309 | 3.0 | 9.0 | 0.00 | 0.00 | 0.00 | 51 | 1004.5 |
| 20260503131128 | 55 | 305 | 2.0 | 6.0 | 0.00 | 0.00 | 0.00 | 52 | 1004.5 |
| 20260503130138 | 54 | 321 | 1.0 | 4.0 | 0.00 | 0.00 | 0.00 | 54 | 1004.5 |
| 20260503120124 | 50 | 257 | 1.0 | 4.0 | 0.00 | 0.00 | 0.00 | 60 | 1003.9 |
| 20260503110114 | 51 | 227 | 1.0 | 3.0 | 0.00 | 0.00 | 0.00 | 55 | 1003.2 |
| 20260503100111 | 54 | 165 | 2.0 | 4.0 | 0.00 | 0.00 | 0.00 | 50 | 1003.7 |
| 20260503081542 | 57 | 200 | 2.0 | 6.0 | 0.00 | 0.00 | 0.00 | 47 | 1004.3 |
| 20260503081042 | 57 | 192 | 3.0 | 10.0 | 0.00 | 0.00 | 0.00 | 48 | 1004.4 |
| 20260503080541 | 57 | 200 | 4.0 | 10.0 | 0.00 | 0.00 | 0.00 | 48 | 1004.4 |
| 20260503072530 | 56 | 196 | 2.0 | 6.0 | 0.00 | 0.00 | 0.00 | 54 | 1004.7 |
| 20260503072026 | 56 | 182 | 2.0 | 6.0 | 0.00 | 0.00 | 0.00 | 54 | 1004.7 |
| 20260503071525 | 56 | 187 | 2.0 | 6.0 | 0.00 | 0.00 | 0.00 | 55 | 1004.8 |
| 20260503071023 | 56 | 189 | 2.0 | 6.0 | 0.00 | 0.00 | 0.00 | 55 | 1004.9 |
| 20260503070525 | 56 | 164 | 2.0 | 6.0 | 0.00 | 0.00 | 0.00 | 56 | 1005.0 |
| 20260503055015 | 56 | 187 | 2.0 | 5.0 | 0.00 | 0.00 | 0.00 | 49 | 1006.6 |
| 20260503054515 | 56 | 188 | 3.0 | 11.0 | 0.00 | 0.00 | 0.00 | 49 | 1006.7 |
| 20260503054014 | 56 | 185 | 2.0 | 11.0 | 0.00 | 0.00 | 0.00 | 49 | 1006.7 |
| 20260503053957 | 56 | 206 | 1.0 | 6.0 | 0.00 | 0.00 | 0.00 | 49 | 1006.7 |
| 20260503053014 | 57 | 202 | 1.0 | 3.0 | 0.00 | 0.00 | 0.00 | 48 | 1006.7 |
| 20260503052514 | 57 | 202 | 1.0 | 4.0 | 0.00 | 0.00 | 0.00 | 48 | 1006.8 |
| 20260503052012 | 57 | 212 | 2.0 | 5.0 | 0.00 | 0.00 | 0.00 | 48 | 1006.7 |
| 20260503051513 | 57 | 190 | 2.0 | 5.0 | 0.00 | 0.00 | 0.00 | 47 | 1006.8 |
| 20260503051010 | 58 | 173 | 3.0 | 5.0 | 0.00 | 0.00 | 0.00 | 46 | 1006.7 |
| 20260503050510 | 58 | 163 | 3.0 | 5.0 | 0.00 | 0.00 | 0.00 | 46 | 1006.8 |
| 20260503050236 | 58 | 161 | 3.0 | 5.0 | 0.00 | 0.00 | 0.00 | 46 | 1006.8 |
| 20260503045508 | 58 | 155 | 3.0 | 6.0 | 0.00 | 0.00 | 0.00 | 46 | 1006.8 |
| 20260503045007 | 58 | 164 | 3.0 | 7.0 | 0.00 | 0.00 | 0.00 | 45 | 1006.9 |
| 20260503044956 | 58 | 159 | 3.0 | 7.0 | 0.00 | 0.00 | 0.00 | 46 | 1007.0 |
| 20260503044006 | 58 | 175 | 3.0 | 7.0 | 0.00 | 0.00 | 0.00 | 45 | 1007.0 |
| 20260503043508 | 58 | 155 | 3.0 | 7.0 | 0.00 | 0.00 | 0.00 | 45 | 1007.1 |
| 20260503043005 | 58 | 153 | 3.0 | 6.0 | 0.00 | 0.00 | 0.00 | 46 | 1007.1 |
| 20260503042721 | 59 | 151 | 2.0 | 5.0 | 0.00 | 0.00 | 0.00 | 46 | 1007.3 |
| 20260503042002 | 59 | 146 | 2.0 | 6.0 | 0.00 | 0.00 | 0.00 | 45 | 1007.3 |
| 20260503041500 | 59 | 146 | 2.0 | 6.0 | 0.00 | 0.00 | 0.00 | 45 | 1007.4 |
| 20260503041001 | 59 | 157 | 2.0 | 4.0 | 0.00 | 0.00 | 0.00 | 45 | 1007.5 |
| 20260503040458 | 59 | 165 | 2.0 | 4.0 | 0.00 | 0.00 | 0.00 | 45 | 1007.5 |
| 20260503035959 | 60 | 155 | 2.0 | 5.0 | 0.00 | 0.00 | 0.00 | 44 | 1007.6 |
| 20260503035456 | 60 | 159 | 2.0 | 5.0 | 0.00 | 0.00 | 0.00 | 44 | 1007.7 |
| 20260503034959 | 60 | 152 | 2.0 | 4.0 | 0.00 | 0.00 | 0.00 | 44 | 1007.7 |
| 20260503034717 | 60 | 154 | 2.0 | 4.0 | 0.00 | 0.00 | 0.00 | 43 | 1007.8 |
| 20260503033952 | 60 | 153 | 2.0 | 4.0 | 0.00 | 0.00 | 0.00 | 43 | 1007.8 |
| 20260503033452 | 60 | 163 | 2.0 | 5.0 | 0.00 | 0.00 | 0.00 | 42 | 1007.9 |
| 20260503033437 | 60 | 206 | 2.0 | 5.0 | 0.00 | 0.00 | 0.00 | 43 | 1008.0 |
| 20260503032452 | 60 | 178 | 2.0 | 6.0 | 0.00 | 0.00 | 0.00 | 43 | 1008.0 |
| 20260503031953 | 60 | 209 | 2.0 | 6.0 | 0.00 | 0.00 | 0.00 | 43 | 1008.2 |
| 20260503031453 | 60 | 224 | 2.0 | 9.0 | 0.00 | 0.00 | 0.00 | 43 | 1008.4 |
| 20260503030954 | 61 | 157 | 3.0 | 9.0 | 0.00 | 0.00 | 0.00 | 42 | 1008.4 |
| 20260503030451 | 61 | 247 | 2.0 | 7.0 | 0.00 | 0.00 | 0.00 | 42 | 1008.6 |
| 20260503025951 | 61 | 132 | 2.0 | 5.0 | 0.00 | 0.00 | 0.00 | 42 | 1008.7 |
| 20260503025451 | 61 | 247 | 2.0 | 5.0 | 0.00 | 0.00 | 0.00 | 42 | 1008.9 |
| 20260503024947 | 61 | 200 | 2.0 | 5.0 | 0.00 | 0.00 | 0.00 | 41 | 1009.1 |
| 20260503024442 | 61 | 225 | 1.0 | 5.0 | 0.00 | 0.00 | 0.00 | 41 | 1009.1 |
| 20260503024205 | 62 | 243 | 1.0 | 7.0 | 0.00 | 0.00 | 0.00 | 40 | 1009.1 |
| 20260503023439 | 62 | 231 | 1.0 | 7.0 | 0.00 | 0.00 | 0.00 | 39 | 1009.1 |
| 20260503022939 | 62 | 225 | 1.0 | 5.0 | 0.00 | 0.00 | 0.00 | 39 | 1009.1 |
| 20260503022438 | 62 | 217 | 2.0 | 5.0 | 0.00 | 0.00 | 0.00 | 39 | 1009.1 |
| 20260503022156 | 62 | 236 | 2.0 | 5.0 | 0.00 | 0.00 | 0.00 | 39 | 1009.2 |
| 20260503021436 | 62 | 223 | 3.0 | 8.0 | 0.00 | 0.00 | 0.00 | 38 | 1009.2 |
| 20260503020938 | 62 | 278 | 3.0 | 8.0 | 0.00 | 0.00 | 0.00 | 37 | 1009.3 |
| 20260503020436 | 63 | 294 | 3.0 | 7.0 | 0.00 | 0.00 | 0.00 | 37 | 1009.4 |
| 20260503015936 | 63 | 290 | 3.0 | 13.0 | 0.00 | 0.00 | 0.00 | 37 | 1009.5 |
| 20260503015436 | 63 | 221 | 4.0 | 13.0 | 0.00 | 0.00 | 0.00 | 36 | 1009.4 |
| 20260503014935 | 63 | 215 | 3.0 | 13.0 | 0.00 | 0.00 | 0.00 | 36 | 1009.4 |
| 20260503014434 | 63 | 246 | 3.0 | 13.0 | 0.00 | 0.00 | 0.00 | 36 | 1009.3 |
| 20260503013935 | 63 | 277 | 3.0 | 8.0 | 0.00 | 0.00 | 0.00 | 36 | 1009.3 |
| 20260503013428 | 63 | 276 | 5.0 | 11.0 | 0.00 | 0.00 | 0.00 | 36 | 1009.4 |
| 20260503012923 | 63 | 273 | 5.0 | 16.0 | 0.00 | 0.00 | 0.00 | 35 | 1009.2 |
| 20260503012413 | 63 | 304 | 5.0 | 16.0 | 0.00 | 0.00 | 0.00 | 35 | 1009.3 |
| 20260503011913 | 63 | 223 | 5.0 | 14.0 | 0.00 | 0.00 | 0.00 | 36 | 1009.3 |
| 20260503011425 | 63 | 224 | 4.0 | 12.0 | 0.00 | 0.00 | 0.00 | 37 | 1009.4 |
| 20260503010912 | 63 | 286 | 3.0 | 11.0 | 0.00 | 0.00 | 0.00 | 37 | 1009.4 |
| 20260503010410 | 63 | 180 | 4.0 | 11.0 | 0.00 | 0.00 | 0.00 | 39 | 1009.3 |
| 20260503005911 | 63 | 230 | 3.0 | 8.0 | 0.00 | 0.00 | 0.00 | 39 | 1009.3 |
| 20260503005410 | 63 | 205 | 3.0 | 8.0 | 0.00 | 0.00 | 0.00 | 39 | 1009.4 |
| 20260503004910 | 63 | 189 | 2.0 | 7.0 | 0.00 | 0.00 | 0.00 | 39 | 1009.4 |
| 20260503004411 | 63 | 215 | 2.0 | 7.0 | 0.00 | 0.00 | 0.00 | 39 | 1009.4 |
| 20260503003911 | 63 | 225 | 1.0 | 4.0 | 0.00 | 0.00 | 0.00 | 39 | 1009.5 |
| 20260503003408 | 63 | 216 | 2.0 | 5.0 | 0.00 | 0.00 | 0.00 | 39 | 1009.5 |
| 20260503002908 | 63 | 200 | 2.0 | 6.0 | 0.00 | 0.00 | 0.00 | 40 | 1009.5 |
| 20260503002407 | 63 | 251 | 3.0 | 8.0 | 0.00 | 0.00 | 0.00 | 38 | 1009.6 |
| 20260503001908 | 64 | 277 | 3.0 | 8.0 | 0.00 | 0.00 | 0.00 | 37 | 1009.7 |
| 20260503001409 | 64 | 234 | 2.0 | 7.0 | 0.00 | 0.00 | 0.00 | 38 | 1009.7 |
| 20260503000909 | 64 | 216 | 2.0 | 7.0 | 0.00 | 0.00 | 0.00 | 38 | 1009.8 |
| 20260503000407 | 64 | 285 | 4.0 | 11.0 | 0.00 | 0.00 | 0.00 | 36 | 1009.8 |
| 20260502235907 | 65 | 248 | 3.0 | 11.0 | 0.00 | 0.00 | 0.00 | 35 | 1009.8 |
| 20260502235407 | 65 | 309 | 3.0 | 9.0 | 0.00 | 0.00 | 0.00 | 34 | 1009.8 |
| 20260502234905 | 65 | 288 | 3.0 | 9.0 | 0.00 | 0.00 | 0.00 | 34 | 1009.8 |
| 20260502234404 | 65 | 271 | 4.0 | 11.0 | 0.00 | 0.00 | 0.00 | 33 | 1009.7 |
| 20260502234133 | 65 | 255 | 4.0 | 11.0 | 0.00 | 0.00 | 0.00 | 33 | 1009.7 |
| 20260502233404 | 65 | 241 | 4.0 | 10.0 | 0.00 | 0.00 | 0.00 | 34 | 1009.7 |
| 20260502233350 | 65 | 260 | 4.0 | 10.0 | 0.00 | 0.00 | 0.00 | 34 | 1009.7 |
| 20260502232627 | 66 | 242 | 4.0 | 10.0 | 0.00 | 0.00 | 0.00 | 33 | 1009.7 |
| 20260502231902 | 66 | 205 | 4.0 | 11.0 | 0.00 | 0.00 | 0.00 | 33 | 1009.7 |
| 20260502231402 | 66 | 194 | 2.0 | 11.0 | 0.00 | 0.00 | 0.00 | 33 | 1009.7 |
| 20260502231122 | 65 | 210 | 2.0 | 7.0 | 0.00 | 0.00 | 0.00 | 34 | 1009.8 |
| 20260502230401 | 65 | 227 | 3.0 | 8.0 | 0.00 | 0.00 | 0.00 | 33 | 1009.9 |
| 20260502225900 | 65 | 211 | 3.0 | 8.0 | 0.00 | 0.00 | 0.00 | 33 | 1009.9 |
| 20260502225359 | 65 | 217 | 3.0 | 9.0 | 0.00 | 0.00 | 0.00 | 34 | 1009.9 |
| 20260502224851 | 65 | 219 | 3.0 | 9.0 | 0.00 | 0.00 | 0.00 | 33 | 1010.0 |
| 20260502224351 | 65 | 223 | 4.0 | 9.0 | 0.00 | 0.00 | 0.00 | 33 | 1010.0 |
| 20260502223851 | 65 | 201 | 4.0 | 7.0 | 0.00 | 0.00 | 0.00 | 33 | 1010.2 |
| 20260502223351 | 65 | 248 | 4.0 | 11.0 | 0.00 | 0.00 | 0.00 | 33 | 1010.3 |
| 20260502222850 | 66 | 267 | 4.0 | 11.0 | 0.00 | 0.00 | 0.00 | 32 | 1010.4 |
| 20260502222351 | 66 | 273 | 3.0 | 9.0 | 0.00 | 0.00 | 0.00 | 32 | 1010.4 |
| 20260502221850 | 66 | 242 | 3.0 | 9.0 | 0.00 | 0.00 | 0.00 | 31 | 1010.5 |
| 20260502221348 | 66 | 205 | 3.0 | 10.0 | 0.00 | 0.00 | 0.00 | 32 | 1010.5 |
| 20260502220849 | 66 | 276 | 4.0 | 10.0 | 0.00 | 0.00 | 0.00 | 30 | 1010.5 |
| 20260502220348 | 67 | 261 | 5.0 | 18.0 | 0.00 | 0.00 | 0.00 | 30 | 1010.6 |
| 20260502215848 | 67 | 250 | 7.0 | 18.0 | 0.00 | 0.00 | 0.00 | 30 | 1010.6 |
| 20260502215607 | 67 | 281 | 6.0 | 18.0 | 0.00 | 0.00 | 0.00 | 30 | 1010.8 |
| 20260502214848 | 67 | 198 | 5.0 | 13.0 | 0.00 | 0.00 | 0.00 | 31 | 1010.6 |
| 20260502214348 | 67 | 227 | 5.0 | 11.0 | 0.00 | 0.00 | 0.00 | 31 | 1010.8 |
| 20260502213848 | 68 | 238 | 5.0 | 14.0 | 0.00 | 0.00 | 0.00 | 30 | 1010.9 |
| 20260502213345 | 68 | 263 | 5.0 | 14.0 | 0.00 | 0.00 | 0.00 | 31 | 1010.9 |
| 20260502212840 | 67 | 220 | 5.0 | 15.0 | 0.00 | 0.00 | 0.00 | 32 | 1011.0 |
| 20260502212340 | 66 | 202 | 5.0 | 15.0 | 0.00 | 0.00 | 0.00 | 32 | 1011.1 |
| 20260502211840 | 67 | 211 | 5.0 | 11.0 | 0.00 | 0.00 | 0.00 | 30 | 1011.2 |